This is the latest recevied weather packets stored in our database for station/object W5CRT. If no packets are shown the sender has not sent any weather packets the latest 10 day(s).
| Time | Temp. | Humidity | Pressure | Rain* | Wind** | Luminosity | Snow |
|---|---|---|---|---|---|---|---|
| 1777654090 | 17.22° C | 66% | 1015.5 hPa | 0 mm | - | 718 W/m² | - |
| 1777653787 | 17.22° C | 68% | 1015.6 hPa | 0 mm | - | 863 W/m² | - |
| 1777653483 | 16.11° C | 69% | 1015.2 hPa | 0 mm | - | 761 W/m² | - |
| 1777653180 | 16.11° C | 69% | 1015.7 hPa | 0 mm | - | 508 W/m² | - |
| 1777652876 | 15.56° C | 73% | 1015.6 hPa | 0 mm | - | 545 W/m² | - |
| 1777652573 | 15.56° C | 75% | 1015.6 hPa | 0 mm | - | 403 W/m² | - |
| 1777652270 | 15.56° C | 75% | 1015.6 hPa | 0 mm | - | 431 W/m² | - |
| 1777651967 | 15.56° C | 75% | 1016.1 hPa | 0 mm | - | 415 W/m² | - |
| 1777651663 | 15° C | 77% | 1016 hPa | 0 mm | - | 417 W/m² | - |
| 1777651361 | 14.44° C | 77% | 1016 hPa | 0 mm | - | 367 W/m² | - |
| 1777651058 | 14.44° C | 76% | 1015.8 hPa | 0 mm | - | 317 W/m² | - |
| 1777650755 | 14.44° C | 78% | 1016.1 hPa | 0 mm | - | 310 W/m² | - |
| 1777650451 | 13.89° C | 78% | 1016 hPa | 0 mm | - | 232 W/m² | - |
| 1777650148 | 13.89° C | 78% | 1016.2 hPa | 0 mm | - | 176 W/m² | - |
| 1777649846 | 13.89° C | 77% | 1015.8 hPa | 0 mm | - | 133 W/m² | - |
| 1777649543 | 13.89° C | 77% | 1015.5 hPa | 0 mm | - | 101 W/m² | - |
| 1777649240 | 13.89° C | 76% | 1015.7 hPa | 0 mm | - | 124 W/m² | - |
| 1777648936 | 13.89° C | 78% | 1015.8 hPa | 0 mm | - | 114 W/m² | - |
| 1777648634 | 13.89° C | 78% | 1015.7 hPa | 0 mm | - | 125 W/m² | - |
| 1777648330 | 13.89° C | 76% | 1015.7 hPa | 0 mm | - | 128 W/m² | - |
| 1777648027 | 13.89° C | 77% | 1015.6 hPa | 0 mm | - | 134 W/m² | - |
| 1777647722 | 13.33° C | 76% | 1015.6 hPa | 0 mm | - | 130 W/m² | - |
| 1777647419 | 13.33° C | 76% | 1015.8 hPa | 0 mm | - | 111 W/m² | - |
| 1777647117 | 13.33° C | 76% | 1015.9 hPa | 0 mm | - | 91 W/m² | - |
| 1777646813 | 13.33° C | 76% | 1015.4 hPa | 0 mm | - | 86 W/m² | - |
* Rain latest hour (hover to see other rain measurements)
** Current wind speed in m/s (hover to see current wind gust speed)